Location: Bermeries
(50.2863°N, 3.7551°E)
Time: 03:59:59
(UTC+00:00)

MSX - Pass Details

Date: 23 May 2024
Orbit: 893 x 906 km, 99.0° (Epoch: 21 June)

Event Time Altitude Azimuth Distance (km) Brightness Sun altitude
Rises 02:02:40 0° 14° (NNE) 3,527 8.4 -12.5°
Reaches altitude 10° 02:05:05 10° 13° (NNE) 2,581 7.4 -12.3°
Maximum altitude 02:10:49 77° 289° (WNW) 924 3.9 -11.8°
Enters shadow 02:15:45 14° 205° (SSW) 2,267 5.3 -11.3°
